Regional Weather Roundup
Issued by NWS

Home | Current Version | Previous Version | Graphics & Text | Print | Product List | Glossary On
Versions: 1 2 3 4 5 6 7 8 9 10 11 12 13 14 15 16 17 18 19 20 21 22 23 24 25 26 27 28 29 30 31 32 33 34 35 36 37 38 39 40 41 42 43 44 45 46 47 48 49 50
000
ASUS43 KMKX 191300
RWRWI

WISCONSIN REGIONAL WEATHER ROUNDUP
NATIONAL WEATHER SERVICE MILWAUKEE/SULLIVAN WI
800 AM CDT SAT APR 19 2014

NOTE: "FAIR" INDICATES FEW OR NO CLOUDS BELOW 12,000 FEET WITH NO
SIGNIFICANT WEATHER AND/OR OBSTRUCTIONS TO VISIBILITY.

WIZ001-002-006>008-014>016-023>028-191400-
NORTHWEST WISCONSIN

CITY           SKY/WX    TMP DP  RH WIND       PRES   REMARKS
SUPERIOR ARPT  MIX PCPN  34  32  90 E6        30.17S WCI  29
ASHLAND        MIX PCPN  36  26  67 CALM      30.23S
HAYWARD        CLOUDY    36  24  62 SE17G23   30.20R WCI  26
SIREN          CLOUDY    38  26  62 S24G36    30.13F WCI  26
RICE LAKE      MOSUNNY   36  24  60 SE22G29   30.23S WCI  25
LADYSMITH      PTSUNNY   36  25  65 SE16      30.27F WCI  26
EAU CLAIRE     MOSUNNY   37  23  56 SE16G32   30.24F WCI  28
MENOMONIE      MOSUNNY   37  26  65 SE21G31   30.22F WCI  26
NEW RICHMOND   MOSUNNY   39  29  69 SE14G21   30.18R WCI  30
OSCEOLA        PTSUNNY   39  31  72 SE17G24   30.19S WCI  30
$$

WIZ003>005-009-010-017-018-191400-
NORTH CENTRAL WISCONSIN

CITY           SKY/WX    TMP DP  RH WIND       PRES   REMARKS
WOODRUFF       PTSUNNY   33  25  73 SE14G26   30.29F WCI  23
RHINELANDER    MOSUNNY   31  23  72 SE14      30.31F WCI  21
EAGLE RIVER    MOSUNNY   30  22  72 SE13G20   30.32F WCI  20
LAND O LAKES   MOSUNNY   32  24  73 SE9       30.32F WCI  24
PHILLIPS       PTSUNNY   32  24  72 SE15G22   30.26F WCI  22
TOMAHAWK       MOSUNNY   31  24  74 SE7       30.32F WCI  25
MEDFORD        MOSUNNY   32  25  75 SE12G20   30.30F WCI  23
MERRILL        MOSUNNY   33  26  75 CALM      30.34F
$$

WIZ029-030-035-036-043>047-191400-
CENTRAL WISCONSIN

CITY           SKY/WX    TMP DP  RH WIND       PRES   REMARKS
WAUSAU         SUNNY     34  27  75 SE10G23   30.35F WCI  26
MOSINEE        SUNNY     32  28  86 E14G21    30.37F WCI  22
MARSHFIELD     SUNNY     34  26  72 SE18      30.33F WCI  23
STEVENS POINT  SUNNY     31  26  81 E10G20    30.38F WCI  22
WAUPACA        SUNNY     36  28  75 E9        30.42F WCI  29
WAUTOMA        NOT AVBL
WISC RAPIDS    SUNNY     35  27  72 E13       30.37F WCI  26
CAMP DOUGLAS   NOT AVBL
$$

WIZ011>013-019>022-031-037>040-048>050-191400-
NORTHEAST WISCONSIN

CITY           SKY/WX    TMP DP  RH WIND       PRES   REMARKS
ANTIGO         SUNNY     30  26  83 SE13      30.38F WCI  20
STURGEON BAY   PTSUNNY   34  28  80 E9        30.45S WCI  26
GREEN BAY      SUNNY     34  29  82 E7        30.45S WCI  28
MANITOWOC      NOT AVBL
APPLETON       MOSUNNY   34  27  75 E8        30.42S WCI  27
CLINTONVILLE   SUNNY     32  30  93 SE7       30.43S WCI  26
OSHKOSH        SUNNY     35  27  72 E13       30.40F WCI  26
$$

WIZ032>034-041-042-053>061-191400-
SOUTHWEST WISCONSIN

CITY           SKY/WX    TMP DP  RH WIND       PRES   REMARKS
LA CROSSE      SUNNY     41  24  51 SE12      30.30F
SPARTA         SUNNY     37  24  59 SE7       30.34F WCI  32
VIROQUA        FAIR      36  25  65 SE17G23   30.30F WCI  25
BOSCOBEL       SUNNY     41  24  51 E8        30.34F
PRAIRIE DU CHI MOSUNNY   38  24  58 E10       30.33S WCI  31
PLATTEVILLE    FAIR      36  28  71 E14       30.33S WCI  27
$$

WIZ056-057-062-063-064-067-068-191400-
SOUTH CENTRAL WISCONSIN

CITY           SKY/WX    TMP DP  RH WIND       PRES   REMARKS
BARABOO/DELLS  SUNNY     35  26  69 E7        30.36F WCI  29
LONE ROCK      NOT AVBL
WATERTOWN      SUNNY     36  28  74 E10       30.38S WCI  28
MADISON        MOSUNNY   37  27  67 E12       30.39R WCI  29
MIDDLETON      FAIR      38  27  65 E12G18    30.37R WCI  30
MONROE         SUNNY     35  28  77 E8        30.34R WCI  28
JANESVILLE     SUNNY     36  27  69 E9        30.36R WCI  29
$$

WIZ051-052-058>065-066-070>072-191400-
SOUTHEAST WISCONSIN

CITY           SKY/WX    TMP DP  RH WIND       PRES   REMARKS
MILWAUKEE      MOSUNNY   36  29  75 E12       30.43S WCI  28
WAUKESHA       MOSUNNY   34  28  80 E9        30.41S WCI  26
MILWAUKEE/TIMM SUNNY     36  27  69 E8        30.43S WCI  29
RACINE         SUNNY     37  30  75 E12       30.43S WCI  29
BURLINGTON     SUNNY     34  29  82 E14       30.39S WCI  25
KENOSHA        SUNNY     37  30  75 E15       30.40S WCI  28
FOND DU LAC    SUNNY     37  26  64 SE12      30.41S WCI  29
SHEBOYGAN      SUNNY     35  28  75 E8        30.44R WCI  29
WEST BEND      SUNNY     34  28  80 E9        30.42R WCI  26
JUNEAU         SUNNY     35  25  68 E13       30.41R WCI  26
$$

LSZ147-162-191400-
LAKE SUPERIOR

STATION/POSITION TIME  TEMP    WIND        PRES    WAVE
                       AIR SEA DIR/SP/G            HT/PER
                 (UTC) (F)     (DEG/KT/KT) (MB)    (FT/S)
DEVILS ISLAND    1200   34     100/ 14/ 15 1025.4S
PORT WING        1200   37      60/  4/  5 1022.7
SAXON HARBOR     1220          160/  7/ 20 1022.7F
$$

LMZ867-665-643>646-191400-
LAKE MICHIGAN

STATION/POSITION TIME  TEMP    WIND        PRES    WAVE
                       AIR SEA DIR/SP/G            HT/PER
                 (UTC) (F)     (DEG/KT/KT) (MB)    (FT/S)
NORTHPORT PIER   1200   33      90/  6/  8 1031.8R
SISTER BAY       1209   35     140/  6/ 10   N/A
KEWAUNEE LAKESHO 1200   34      90/  9/ 11 1031.6S
SHEBOYGAN LAKESH 1200   35      80/ 11/ 12 1031.7R
PORT WASHINGTON  1200   36      80/  9/ 11 1030.8
MILWAUKEE LAKESH 1200   35      70/ 12/ 14   N/A
KENOSHA   LAKESH 1200   36      60/ 13/ 16   N/A
$$

TC  - TEMPERATURE IN CELSIUS
VSB - VISIBILITY IN STATUTE MILES
WCI - WIND CHILL INDEX
HX  - HEAT INDEX




USA.gov is the U.S. government's official web portal to all federal, state and local government web resources and services.